SL-16 DEB, 22340

Orbit data source: Space-Track

SL-16 DEB, 22340 is space debris in LEO originally from a launch on Fri, 25 Dec 1992 UTC launched from the Tyuratam Missile And Space Complex (TTMTR). Debris objects in space refer to the collection of defunct objects orbiting the Earth. Examples of debris include non-operational satellites, rocket bodies, and fragments generated from explosions, collisions, or faulty payload assembly.

Loading next visibility...
SL-16 DEB details
Identifier
22340, 1992-093AD
Orbit
LEO
Last TLE update6 hours ago
Origin
Flag of CISRVSN RF (CIS)
ManufacturerUnknown
MissionSpacecraft
Bus & MotorUnknown
MassUnknown
Launch date (UTC)
1992-12-25 (32 years ago)
Launch vehicleUnknown
Launch site
Tyuratam Missile And Space Complex (TTMTR)
Object type
Payload
Rocket body
Debris
Shape & HBRUnknown
Radar Cross SectionMedium (>0.1 m² and <1 m²)

Expand to show TLE details & history

TLE from 6 hours ago
0 SL-16 DEB
1 22340U 92093AD  24361.46877366  .00000130  00000-0  12629-3 0  9994
2 22340  70.8750 137.2369 0099126  64.8854 353.6328 13.94443977627740
Epoch: 2024-12-26T11:15Z
Definitive object data (Epoch: 2024-12-26T11:15:02.044Z)
Latitude53.68726°
Longitude-98.97702°
Altitude849.52 km
Speed7.47 km/s
True Right ascension11h 00m 55s
True Declination53° 31' 30"
Sunlit
Object was in full shadow at TLE epoch
Visualization TLE readout
Latitude-55.74384°
Longitude-157.9407°
Altitude975.438 km
Speed7.342 km/s
Apparent Right ascension05h 55m 21s
Apparent Declination-49° 20' 38"
Sunlit
Object is in daylight
Visualization observer readout
Local Sidereal Time16:56:36
Azimuth222.947° SW
Elevation-75.969°
Doppler factor1
Orbital elements
Apogee altitude983.31 km
Perigee altitude838.801 km
Semi-major axis7,289.193 km
Eccentricity0.0099126
Inclination70.875°
RAAN137.2369°
Arg. of periapsis64.8854°
True anomaly353.50526°
Mean anomaly353.6328°
Eccentric anomaly353.56919°
Mean motion3.48758 °/min
BSTAR0.00012629
Orbital period103.22 mins
Loading maneuver chart data...
Loading historical data...
Loading historical data...
Loading historical data...
Loading historical data...
Loading historical data...
Loading historical data...
Loading historical data...

SL-16 DEB Visibility forecast

Observer location: undefined°, undefined

Span
Click to sort rows by Start time (UTC) header in descending order
Start Az.
Max El. time (UTC)
Max El. Az.
Max El.
End time (UTC)
End Az.
10 mins2024-12-26 20:08:15.441Z345.16° N2024-12-26 20:13:15.441Z62.386° ENE41.117°2024-12-26 20:18:15.441Z142.237° SSE
6 mins2024-12-26 21:56:15.441Z286.222° WNW2024-12-26 21:58:15.441Z261.717° W17.803°2024-12-26 22:02:15.441Z218.563° SW
7 mins2024-12-27 09:29:15.441Z141.618° SSE2024-12-27 09:32:15.441Z103.018° ESE20.915°2024-12-27 09:36:15.441Z54.394° ENE
9 mins2024-12-27 11:13:15.441Z228.57° WSW2024-12-27 11:17:15.441Z287.148° WNW36.112°2024-12-27 11:22:15.441Z9.6° NNE
|